Regional Weather Roundup
Issued by NWS Lake Charles, LA

Home | Current Version | Previous Version | Text Only | Print | Product List | Glossary On
Versions: 1 2 3 4 5 6 7 8 9 10 11 12 13 14 15 16 17 18 19 20 21 22 23 24 25 26 27
000
ASUS44 KLCH 261110
RWRLCH
REGIONAL WEATHER ROUNDUP
NATIONAL WEATHER SERVICE LAKE CHARLES LA
600 AM CDT WED APR 26 2017

Note: "fair" indicates few or no clouds below 12,000 feet with no
significant weather and/or obstructions to visibility.


ACROSS SOUTHEAST TEXAS

CITY           SKY/WX    TMP DP  RH WIND       PRES   REMARKS
BEAUMONT       CLOUDY    75  69  81 S17G23    29.56F
BEAUMONT CITY  CLOUDY    75  70  85 MISG      29.57R
ORANGE         CLOUDY    75  71  86 S13G18    29.59F
JASPER         LGT RAIN  74  71  88 S5        29.57R
$$

ACROSS CENTRAL LOUISIANA

CITY           SKY/WX    TMP DP  RH WIND       PRES   REMARKS
LEESVILLE      CLOUDY    72  68  86 S15       29.57F
FULLERTON      CLOUDY    73  68  84 CALM      29.56S
ALEXANDRIA INT CLOUDY    71  67  87 SE10      29.58F
ESLER FIELD    CLOUDY    69  67  93 SE8       29.61S
DERIDDER       CLOUDY    73  71  95 SE10      29.59S
OAKDALE        CLOUDY    73  68  86 S7        29.61S
OPELOUSAS      CLOUDY    70  66  87 SE5       29.64R
$$

ACROSS SOUTHWEST AND SOUTH CENTRAL LOUISIANA

CITY           SKY/WX    TMP DP  RH WIND       PRES   REMARKS
SULPHUR        CLOUDY    75  70  85 SE15      29.59F
LAKE CHARLES   CLOUDY    74  69  85 S13       29.60S
CHENNAULT INT  CLOUDY    72  68  88 S12       29.61S
CAMERON PHI    CLOUDY    75  70  83 S18       29.60S
DEQUINCY       CLOUDY    73  68  84 SE12G21   29.58F
JENNINGS       LGT RAIN  72  69  90 S7        29.63R
LAFAYETTE      CLOUDY    76  67  73 S8        29.64R
NEW IBERIA     CLOUDY    73  65  75 S9        29.65R
ABBEVILLE      CLOUDY    73  70  88 S12       29.65R
PATTERSON      CLOUDY    72  67  84 S7        29.66R
SALT POINT       N/A     74  66  76 VRB6      29.64R
$$

SELECTED SITES ACROSS THE REGION

CITY           SKY/WX    TMP DP  RH WIND       PRES   REMARKS
HOUSTON BUSH   CLOUDY    77  69  76 S17       29.52S
HOUSTON HOBBY  CLOUDY    76  70  82 S13G22    29.51F
GALVESTON      CLOUDY    78  73  84 S17G25    29.55F
COLLEGE STAT   CLOUDY    75  69  81 S17G29    29.46F
CONROE         CLOUDY    75  68  78 S13       29.50F
HUNTSVILLE     CLOUDY    76  67  73 S10G23    29.48F
LUFKIN         CLOUDY    74  68  81 S13G18    29.51R
SHREVEPORT     MOCLDY    71  68  90 S12       29.50R
MONROE         MOCLDY    70  65  84 S10G17    29.58F
NATCHEZ MS     CLOUDY    67  63  87 S10       29.66R
BATON ROUGE    CLOUDY    68  63  84 E5        29.67R
N.O. INTL ARPT MOCLDY    71  62  73 S12G21    29.68R
SLIDELL        CLOUDY    69  62  78 S10       29.69S
$$

MARINE REPORTS

STATION/POSITION TIME  SKY/WX   TEMP    WIND        PRES    VSBY
                                AIR SEA DIR/SP/G
                 (UTC)          (F)     (DEG/KT/KT) (MB)    (MI)
BUOY 30 S HIGH I 1050            76 75  170/ 17/ 21 1000.2F
WVE H/P(F/S)=  6/ 7

SEA RIM ST PARK  1000            75     160/ 15/ 19 1002.1R
PORT ARTHUR      1042            74 75  160/  9/ 15 1001.4F
SABINE PASS N    1042            75 77  150/ 17/ 22 1002.5F
TEXAS POINT      NOT AVBL
CALCASIEU PASS   1048            75 74  180/ 19/ 21   N/A
LK CHARLES BEACH 1048            74 74              1002.7R
MARSH ISLAND     1000            78                   N/A
FRESH WATER LOCK 1048            74 73  160/ 14/ 22 1003.7R
AMERADA PASS     1048            73 71  150/  7/ 11 1004.0R
$$




USA.gov is the U.S. government's official web portal to all federal, state and local government web resources and services.